User: anonymous   Login
Location: Bishop's University Astronomical Observatory
(45.3661°N, 71.8475°W)
Time: 11:06:48
(UTC-04:00)
Language:

Meteor 2-5 Rocket - Orbit

View from above orbital plane
View from above orbital plane
View from above satellite
View from above satellite

Ground track
Ground track

The orbit data is extracted from the following two-line orbital elements,

1 11608U 79095B   16150.34298295 -.00000013  00000-0 -15527-4 0  9991
2 11608  81.2149 223.4820 0055174 159.4542 200.8863 14.06097968876138
Epoch (UTC): 29 May 2016 08:13:53
Eccentricity: 0.0055174
inclination: 81.2149°
perigee height: 833 km
apogee height: 913 km
right ascension of ascending node: 223.4820°
argument of perigee: 159.4542°
revolutions per day: 14.06097968
mean anomaly at epoch: 200.8863°
orbit number at epoch: 87613

The dashed part of the orbit path shows where the satellite is in the earth's shadow,  

DLR